Location: Unspecified
(50.7693°N, 0.0000°E)
Time: 00:54:27
(UTC+00:00)

Transit 4A - Pass Details

Date: 01 July 2019
Orbit: 862 x 982 km, 66.8° (Epoch: 20 July)

Event Time Altitude Azimuth Distance (km) Brightness Sun altitude
Rises 15:50:23 0° 317° (NW) 3,687 11.4 38.6°
Reaches altitude 10° 15:53:21 10° 306° (NW) 2,725 11.0 38.1°
Maximum altitude 15:58:32 27° 251° (WSW) 1,750 11.5 37.3°
Drops below altitude 10° 16:03:37 10° 196° (SSW) 2,655 10.7 36.5°
Sets 16:06:28 0° 185° (S) 3,575 11.1 36.1°
